Location: Archemont
(49.1579°N, 1.7598°E)
Time: 11:04:18
(UTC+00:00)

deb Explorer IX - Pass Details

Date: 16 April 2024
Orbit: 513 x 891 km, 38.7° (Epoch: 23 May)

Event Time Altitude Azimuth Distance (km) Brightness Sun altitude
Rises 16:05:59 0° 260° (W) 3,508 ? 25.2°
Reaches altitude 10° 16:09:02 10° 248° (WSW) 2,540 ? 24.7°
Maximum altitude 16:13:52 25° 196° (SSW) 1,650 ? 24.0°
Drops below altitude 10° 16:18:26 10° 143° (SE) 2,381 ? 23.2°
Sets 16:21:12 0° 130° (SE) 3,244 ? 22.8°
